C/2009 Y1 (Catalina)
Epoch 2011 Feb. 8.0 TT = JDT 2455600.5  
T 2011 Jan. 28.90018 TT                                 Nakano
q   2.5205123            (2000.0)            P               Q
z  +0.0026424      Peri.  127.39089     +0.65143194     +0.68690575
 +/-0.0000018      Node   160.27715     -0.28549220     -0.17149959
e   0.9933398      Incl.  107.31628     +0.70294426     -0.70622120
From 332 observations 2009 Dec. 17-2010 Sept. 13, mean residual 0".49.
   (1/a)org.= +0.002673, (1/a)fut.= +0.002982 (+/-0.000002), Q= 7.
   The comet has passed 1.22 AU from Saturn on 2008 Mar. 8 and will
   pass 3.26 AU from Jupiter on 2011 May 11 UT.
Residuals in seconds of arc 
2009/                     100216 H45  0.4+  0.0     100427 A13  0.1+  0.0   
091217 703  0.5-  0.2-    100216 H45  0.4+  0.0     100429 160  0.6-  1.2-  
091217 703  0.6-  0.0     100216 H45  0.5+  0.0     100429 160  0.4-  0.4-  
091217 703  1.1-  0.8-    100216 H45  0.3+  0.1-    100429 160  0.4-  0.1+  
091217 703  0.5-  0.2-    100216 H45  0.4+  0.4+    100505 J38  0.5+  0.3+  
091218 H06  0.3-  0.8-    100216 D93  0.2+  0.0     100505 J38  0.4+  0.3+  
091218 H06  0.0   0.5-    100216 D93  0.1+  0.6+    100505 J38  0.6+  0.3+  
091218 H06  0.2-  0.0     100217 046  0.7+  0.2+    100507 367  0.4+  0.2-  
091218 H01  0.4+  0.1+    100217 046  1.5-  0.2-    100507 367  0.2+  0.1-  
091218 H01  0.2+  0.0     100217 046  0.8-  1.3-    100507 367  0.1+  0.2-  
091218 H01  0.3+  0.0     100217 046  0.3+  1.1+    100514 561  0.1-  0.1+  
091218 H01  0.3+  0.0     100217 046  1.8+  0.2-    100514 561  0.2+  0.1+  
091218 H01  0.5+  0.1-    100217 046  1.0+  0.4-    100514 561  0.1+  0.1+  
091219 J95  0.6-  0.6-    100219 900  0.4-  0.5+    100517 J38  0.5+  0.2-  
091219 J95  0.2+  0.0     100219 900  0.5-  0.3-    100517 J38  0.5+  0.3-  
091219 J95  0.0   0.1+    100220 J01  0.1+  0.1-    100517 J38  0.6+  0.0   
091219 G96  0.0   0.2-    100220 J01  0.1+  0.2-    100519 J38  0.2+  0.3+  
091219 G96  0.3-  0.2-    100220 J01  0.1+  0.2+    100519 J38  0.2+  0.2+  
091219 G96  0.1-  0.2-    100226 704 (2.1+  0.9+)   100519 J38  0.3+  0.0   
091219 G96  0.2-  0.2-    100226 704  0.4+  0.1+    100520 J38  0.1+  0.8-  
091219 473  0.1+  0.1+    100226 704  1.0+  0.6+    100520 J38  0.4+  0.2-  
091219 473  0.0   0.0     100226 704  0.6+  0.2+    100520 J38  0.4+  0.8+  
091220 204  0.1-  0.1+    100226 704  0.2+  1.2+    100523 J38  0.5+  0.1-  
091220 204  0.1+  0.0     100306 A77  0.1+  0.3-    100523 J38  0.2+  0.4+  
091220 H01  0.7+  0.2+    100306 A77  0.1+  0.0     100523 J38  0.1+  0.2+  
091220 H01  0.7+  0.2+    100306 A77  0.0   0.2-    100529 J38  0.3+  0.3+  
091220 H01  0.6+  0.2+    100308 H45  0.2-  0.0     100529 J38  0.2+  0.2-  
091220 H01  0.6+  0.1+    100308 H45  0.0   0.1-    100529 J38  0.7+  0.3+  
091221 473  0.1+  0.0     100308 H45  0.1+  0.2+    100603 J38  0.9+  0.0   
091221 473  0.0   0.0     100308 H45  0.2-  0.3+    100603 J38  0.7+  0.4+  
091221 349  0.7+  0.3+    100308 H45  0.1+  0.1-    100603 J38  0.4+  0.7+  
091221 349  0.8+  0.5+    100308 H45  0.0   0.0     100603 017  0.4-  0.3+  
091221 349  0.8+  0.3+    100310 H45  0.2+  0.1-    100603 017  0.4-  0.4+  
091223 372  0.8+  0.1-    100310 H45  0.3+  0.1-    100603 017  0.5-  0.5+  
091223 372  0.1+  1.7+    100310 H45  0.1+  0.1-    100603 017  0.5-  0.3+  
091226 G68  1.2+  0.3-    100310 H45  0.1-  0.4-    100603 017  0.4-  0.4+  
091226 G68  0.0   0.2+    100310 H45  0.3-  0.1-    100604 017  0.3-  0.2-  
091226 372  0.1-  0.6+    100310 H45  0.4+  0.0     100604 017  0.7-  0.5-  
091226 372  0.5+  0.0     100313 349  0.5+  0.5-    100604 017  0.6-  0.0   
091227 A77  0.2-  0.3+    100313 349  0.3+  0.2-    100604 017  0.5-  0.1-  
091227 A77  0.1+  0.1-    100314 J01  0.3+  0.5+    100604 017  0.6-  0.0   
091227 A77  0.9-  0.4-    100314 J01  0.0   0.5+    100604 017  0.5-  0.2+  
091227 A77 (0.4-  3.4+)   100314 J01  0.3+  0.0     100605 017  0.3-  1.0-  
091228 H45  0.3-  0.2+    100316 H45  0.1+  0.3-    100605 017  0.3-  1.1-  
091228 H45  0.3-  0.3-    100316 H45  0.5-  0.1-    100605 017  0.4-  1.1-  
091228 H45  0.4-  1.3-    100316 H45  0.0   0.1-    100605 017  0.3-  0.9-  
091228 H45  0.7-  0.1-    100316 H45  0.3+  0.3-    100605 017  0.2-  1.0-  
091228 H45  0.2-  0.2-    100316 H45  0.2-  0.2-    100605 017  0.2-  0.9-  
091228 H45  0.2-  0.1+    100316 H45  0.3+  0.0     100611 900  0.3+  0.8-  
091228 H45  0.3-  0.1+    100320 954  0.3-  0.8+    100611 900  0.8+  0.4-  
091229 473  0.0   0.3+    100320 954  0.6-  0.1+    100613 212  0.8+  0.3+  
091229 473  0.0   0.4+    100320 954  0.6-  0.4+    100620 J38  0.2+  0.6+  
091229 461  0.1+  0.0     100323 H45  0.6+  0.0     100620 J38  0.6+  0.4+  
091229 461  0.1+  0.1+    100323 H45  0.1+  0.0     100620 J38  0.7+  0.3+  
091229 461  0.0   0.2+    100323 H45  0.0   0.2+    100702 A71  0.0   0.0   
091229 900  0.7-  1.5-    100323 H45  0.1+  0.2+    100702 A71  0.3+  0.1-  
091229 900  0.6+  1.9-    100323 H45  0.5+  0.3+    100702 A71  0.2+  0.2-  
2010/                     100323 H45  0.0   0.2+    100702 A71  0.2+  0.1-  
100106 349  0.2-  0.1-    100326 900  0.0   0.2-    100702 A71  0.1+  0.3-  
100106 349  0.7-  0.4-    100326 900  0.0   0.5-    100702 A71  0.5+  0.1+  
100107 372  0.2+  0.2-    100327 J28  0.4-  0.1-    100710 561  0.1+  0.1-  
100107 372  0.4-  0.3-    100327 J28  0.0   0.0     100710 561  0.1+  0.0   
100112 H10  0.7-  0.9+    100327 B18  0.3-  0.4+    100710 561  0.1-  0.2-  
100112 H10  0.4-  0.6+    100327 B18  0.2-  0.3+    100712 561  0.0   0.5+  
100112 H10  0.0   0.4+    100327 B18  0.1-  0.6+    100712 561  0.2+  0.1+  
100112 H10  0.3-  0.5-    100327 B18  0.2-  0.3+    100712 561  0.0   0.2+  
100116 157  0.1+  0.2-    100327 B18  0.0   0.4+    100712 561  0.2+  0.3-  
100116 157  0.8+  0.2+    100328 704  1.5+  0.3+    100712 561  0.1+  0.3-  
100118 204  0.3-  0.1-    100328 704  0.2-  0.4+    100714 561  0.0   0.1-  
100118 204  0.4-  0.2-    100328 704  0.2+  1.9+    100714 561  0.0   0.0   
100118 473  0.2-  0.1+    100328 704  0.3-  1.6+    100714 561  0.0   0.0   
100118 473  0.2-  0.3+    100328 704  0.4+  1.1-    100714 561  1.5-  0.0   
100119 215  0.3+  0.5+    100330 900  1.2-  0.5+    100724 017  0.2-  1.1-  
100119 215  0.3+  0.2+    100330 900  0.4-  0.7+    100724 017  0.0   1.1-  
100123 349  0.2+  0.2+    100331 J01  0.2-  0.2-    100724 017  1.3-  0.8-  
100123 349  0.0   0.1+    100331 J01  0.1+  0.2-    100724 017  0.7-  0.4-  
100124 561  0.3+  0.0     100331 J01  0.1+  0.4-    100725 017  0.1-  0.1-  
100124 561  0.0   0.3-    100406 H45  0.2+  1.1-    100725 017  0.7-  0.2-  
100124 561  0.6+  0.3+    100406 H45  0.8-  0.8-    100725 017  1.1-  0.2-  
100124 704  0.8+  0.5+    100406 H45  0.1+  0.0     100725 017  0.2-  0.2-  
100124 704  0.4-  0.3-    100406 H45  0.4+  0.2-    100801 A71  0.9+  0.1+  
100124 704  0.3+  0.1+    100406 H45  0.7+  0.4-    100801 A71  1.0+  0.1+  
100124 704  0.9-  0.4-    100406 H45  0.1+  0.7-    100801 A71  1.0+  0.2+  
100124 704  0.3+  0.0     100409 C51  1.1+  1.4+    100801 A71  1.0+  0.2+  
100124 900  0.2-  0.3+    100409 C51  0.2-  0.1-    100811 561  0.4-  0.1-  
100124 900  0.2-  0.5+    100409 C51  0.8+  0.5+    100811 561  0.6-  0.0   
100124 372  0.2+  0.5+    100409 C51  0.4-  0.4+    100811 561  0.3-  0.1+  
100125 H45  0.8-  0.7-    100410 C51  0.3+  0.0     100820 B82  0.0   0.3+  
100125 H45  0.7-  0.0     100410 C51  1.2+  0.3+    100820 B82  0.0   0.4+  
100125 H45  0.3-  0.9+    100410 C51  0.1-  0.1-    100820 B82  0.1-  0.2+  
100125 H45  0.1+  0.1-    100410 C51  0.0   0.5-    100821 B82  0.0   0.1+  
100125 H45  0.2-  0.1+    100410 C51  0.3+  0.4-    100821 B82  0.2+  0.4+  
100125 H45  0.1-  0.1+    100410 C51  0.6-  0.0     100821 B82  0.1+  0.5+  
100205 B49  0.4-  1.5-    100410 C51  0.5-  0.1+    100825 349  0.4+  0.7+  
100205 B49 (2.0-  2.3-)   100410 J53  1.1-  0.5-    100825 349  0.1+  0.3+  
100205 B49  1.6-  1.1-    100410 J38  0.1-  0.3-    100831 B74  0.5-  0.5+  
100206 372  0.0   0.4+    100410 J53  1.6-  0.1+    100831 B74  0.2-  0.2-  
100207 B18  0.2-  0.6+    100410 J38  0.1+  0.6+    100831 B74  0.1+  0.2+  
100207 B18  0.1-  0.6+    100410 J53  1.1-  0.3-    100903 367  0.2-  0.0   
100207 B18  0.1-  0.5+    100410 J38  0.8+  0.1-    100903 367  0.3-  0.0   
100207 D93  0.4+  1.0+    100411 H10  1.1+  1.7-    100903 367  0.4-  0.0   
100207 D93  0.1+  0.3+    100411 H10  0.2+  1.4-    100903 349  0.0   0.1-  
100207 D93  1.4-  0.4-    100411 H10  1.4-  1.5-    100903 349  0.1+  0.1-  
100215 H45  0.3-  0.2+    100414 J38  0.0   0.1+    100909 J38  0.3+  0.2+  
100215 H45  0.3+  0.4+    100414 J38  0.0   0.0     100909 J38  0.1+  0.1+  
100215 H45  0.2-  0.2+    100414 J38  0.1-  0.4-    100909 J38  0.0   0.3+  
100215 H45  0.2-  0.2+    100414 204  0.3-  0.4+    100910 B66  0.7+  0.3+  
100215 H45  0.0   0.3+    100414 204  0.3-  0.3+    100910 B66  0.1+  0.2+  
100215 H45  0.5-  0.3+    100426 J38  0.5+  0.2+    100913 B74  0.4+  0.0   
100215 H45  0.2-  0.4+    100426 J38  0.4+  0.2+    100913 B74  0.4+  0.0   
100215 D93  0.1+  0.4-    100426 J38  0.1-  0.0     100913 B74  0.3+  0.1-  
100215 D93  0.0   0.5-    100427 A13  0.1+  0.1-                            
100216 H45  0.5+  0.4+    100427 A13  0.0   0.2-                            


NAKANO
         **** Don't distribute anyone except personal use only ****
           (C) Copyright 2010 Orbit.Astro.Assoc./ComputingSection
write mail from CFAD0::NAKANO on 2010-09-15 06:57:10(JST).
 
